Location: S�o Paulo
(23.5330°S, 46.6170°W)
Time: 16:40:37
(UTC-03:00)

ISS - Visible Passes

Search period start: 08 December 2019 00:00
Search period end: 18 December 2019 00:00
Orbit: 411 x 421 km, 51.6° (Epoch: 08 December)

Date Brightness Start Highest point End Pass type
(mag) Time Alt. Az. Time Alt. Az. Time Alt. Az.
14 Dec -2.3 19:21:15 10° N 19:23:38 18° NE 19:26:03 10° E visible
14 Dec -1.2 20:57:30 10° W 21:00:13 22° SW 21:02:57 10° S visible
15 Dec -2.5 20:08:21 10° WNW 20:11:35 44° SW 20:14:53 10° SSE visible
16 Dec -1.4 04:21:13 10° SSW 04:24:11 28° SE 04:27:08 10° ENE visible
16 Dec -3.8 19:19:40 10° NW 19:23:02 80° NE 19:26:27 10° SE visible
17 Dec -0.4 03:33:26 10° S 03:35:30 15° SE 03:37:34 10° E visible
17 Dec -0.3 20:09:34 10° WSW 20:11:19 13° SW 20:13:04 10° S visible
